Simultaneous Nadir Overpasses (SNOs) Predictions

Prediction of SNOs between GOES-15 and METOP-C Satellite Orbit:

Table of predicted SNOs for the next 14.0 days since TLE Epoch: 5/30/2022
Index Date Time (GOES-15) GOES-15 Lat,Lon METOP-C Lat,Lon Distance(km) Time Diff (sec)
1 06/01/2022 06:00:17 0.22,-128.01 0.29,-127.67 38.74 80
2 06/02/2022 18:21:46 -0.21,-128.08 0.70,-132.23 472.35 80
3 06/03/2022 17:58:26 -0.22,-128.11 -0.42,-127.23 99.73 80
4 06/05/2022 06:20:05 0.22,-128.12 -0.63,-131.83 422.58 80
5 06/06/2022 05:56:45 0.23,-128.14 0.49,-126.83 149.16 80
6 06/07/2022 18:18:14 -0.22,-128.21 0.49,-131.39 362.62 80
7 06/08/2022 17:54:54 -0.23,-128.23 -0.63,-126.39 209.14 80
8 06/10/2022 06:16:33 0.22,-128.24 -0.40,-130.98 313.43 80
9 06/11/2022 05:53:13 0.23,-128.25 0.72,-125.99 257.71 80
10 06/12/2022 18:14:42 -0.21,-128.30 0.27,-130.55 255.42 80
